Location: Baia Mare
(47.6567°N, 23.5850°E)
Time: 02:25:43

ISS - Pass Details

Date: 25 March 2018
Orbit: 403 x 406 km, 51.6° (Epoch: 22 March)

Event Time Altitude Azimuth Distance (km) Brightness Sun altitude
Rises 20:52:18 0° 214° (SW) 2,313 0.3 -11.9°
Reaches altitude 10° 20:54:33 10° 202° (SSW) 1,457 -1.0 -12.3°
Enters shadow 20:58:14 24° 114° (ESE) 897 -2.7 -12.9°
Exits shadow 21:28:25 -57° 57° (ENE) 11,185 3.4 -17.6°
